Weather History for Preston, MN

Change the Weather History Date:

Friday, November 30, 2012

  Actual Average (KRST) Record (KRST)
Temperature  
Mean Temperature 36 °F 26 °F  
Max Temperature 39 °F 33 °F 59 °F (1962)
Min Temperature 34 °F 18 °F -18 °F (1893)
Degree Days  
Heating Degree Days 28 39  
Month to date heating degree days 936  
Since 1 July heating degree days 1672  
Cooling Degree Days 0 0  
Month to date cooling degree days 0  
Year to date cooling degree days 585  
Moisture  
Dew Point 32 °F    
Average Humidity 81    
Maximum Humidity 87    
Minimum Humidity 71    
Precipitation  
Precipitation 0.00 in 0.06 in 0.98 in (1934)
Month to date precipitation 1.91  
Year to date precipitation 31.79  
Snow  
Snow 0.00 in 0.30 in 12.00 in (1934)
Month to date snowfall 6.1  
Since 1 July snowfall 6.9  
Snow Depth -    
Sea Level Pressure  
Sea Level Pressure 30.09 in    
Wind  
Wind Speed 7 mph (East)    
Max Wind Speed 14 mph    
Max Gust Speed 17 mph    
Visibility 4 miles    
Events      
T = Trace of Precipitation, MM = Missing Value Source: NWS Daily Summary

Daily Weather History Graph

Daily Weather History Graph

Search for Another Location

Airport:

Trip Planner

Search our weather history database for the weather conditions in past years. The results will help you decide how hot, cold, wet, or windy it might be!

Date:

Astronomy

Nov. 30, 2012 Rise Set
Actual Time 7:21 AM CST 4:33 PM CST
Civil Twilight 6:49 AM CST 5:05 PM CST
Nautical Twilight 6:13 AM CST 5:41 PM CST
Astronomical Twilight 5:39 AM CST 6:15 PM CST
Moon 6:28 PM CST (11/30) 8:53 AM CST (11/30)
Length of Visible Light 10h 15m
Length of Day
9h 11m
Waning Gibbous, 96% of the Moon is Illuminated
Nov 30
Waning Gibbous
Dec 6
Last Quarter
Dec 13
New
Dec 19
First Quarter
Dec 28
Full

Hourly Weather History & Observations

Time (CST) Temp. Windchill Dew Point Humidity Pressure Visibility Wind Dir Wind Speed Gust Speed Precip Events Conditions
12:10 AM 36.1 °F 32.3 °F 28.2 °F 73% 30.04 in 7.0 mi NE 4.6 mph - N/A   Clear
12:30 AM 36.3 °F 33.7 °F 28.0 °F 72% 30.04 in 10.0 mi NE 3.5 mph - N/A   Clear
12:50 AM 36.5 °F 31.8 °F 28.0 °F 71% 30.03 in 10.0 mi ENE 5.8 mph - N/A   Mostly Cloudy
1:10 AM 35.8 °F 31.9 °F 28.2 °F 74% 30.03 in 7.0 mi ENE 4.6 mph - N/A   Mostly Cloudy
1:29 AM 36.1 °F 31.4 °F 28.4 °F 73% 30.02 in 7.0 mi ENE 5.8 mph - N/A   Scattered Clouds
1:50 AM 36.9 °F 32.2 °F 28.4 °F 71% 30.04 in 7.0 mi ENE 5.8 mph - N/A   Scattered Clouds
2:10 AM 36.5 °F 31.0 °F 28.4 °F 72% 30.04 in 7.0 mi East 6.9 mph - N/A   Mostly Cloudy
2:30 AM 36.5 °F 30.3 °F 28.4 °F 72% 30.04 in 7.0 mi East 8.1 mph - N/A   Mostly Cloudy
2:50 AM 36.5 °F 31.0 °F 29.1 °F 75% 30.05 in 7.0 mi ENE 6.9 mph - N/A   Mostly Cloudy
3:10 AM 36.5 °F 30.3 °F 29.3 °F 75% 30.05 in 7.0 mi ENE 8.1 mph - N/A   Overcast
3:50 AM 36.5 °F 31.0 °F 29.7 °F 76% 30.05 in 7.0 mi ENE 6.9 mph - N/A   Overcast
4:09 AM 36.0 °F 28.5 °F 29.3 °F 77% 30.04 in 5.0 mi ENE 10.4 mph - N/A   Haze
4:30 AM 35.6 °F 29.9 °F 29.3 °F 78% 30.04 in 5.0 mi East 6.9 mph - N/A   Haze
4:49 AM 35.2 °F 29.5 °F 29.7 °F 80% 30.05 in 5.0 mi East 6.9 mph - N/A   Haze
5:10 AM 34.9 °F 29.9 °F 29.3 °F 80% 30.05 in 5.0 mi East 5.8 mph - N/A   Haze
5:50 AM 35.2 °F 30.3 °F 30.2 °F 82% 30.07 in 5.0 mi NE 5.8 mph - N/A   Haze
6:10 AM 35.8 °F 30.9 °F 30.6 °F 81% 30.07 in 5.0 mi NE 5.8 mph - N/A   Haze
6:30 AM 36.0 °F 31.1 °F 30.7 °F 81% 30.08 in 5.0 mi NE 5.8 mph - N/A   Haze
6:50 AM 36.5 °F 29.7 °F 30.9 °F 80% 30.08 in 5.0 mi ENE 9.2 mph - N/A   Haze
7:10 AM 36.5 °F 29.7 °F 31.1 °F 81% 30.09 in 5.0 mi East 9.2 mph - N/A   Haze
7:30 AM 36.5 °F 30.3 °F 31.1 °F 81% 30.09 in 4.0 mi East 8.1 mph - N/A   Haze
7:50 AM 36.5 °F 28.2 °F 31.1 °F 81% 30.08 in 3.0 mi East 12.7 mph - N/A   Haze
8:10 AM 36.5 °F 29.7 °F 31.5 °F 82% 30.09 in 3.0 mi ENE 9.2 mph - N/A   Haze
8:30 AM 36.5 °F 30.3 °F 31.6 °F 83% 30.10 in 3.0 mi East 8.1 mph - N/A   Haze
8:50 AM 36.5 °F 29.2 °F 31.6 °F 83% 30.11 in 3.0 mi ENE 10.4 mph - N/A   Overcast
9:10 AM 36.5 °F 30.3 °F 31.8 °F 83% 30.13 in 2.5 mi East 8.1 mph - N/A   Overcast
9:30 AM 36.3 °F 28.4 °F 31.6 °F 83% 30.12 in 2.5 mi East 11.5 mph - N/A   Overcast
9:50 AM 36.1 °F 27.3 °F 31.8 °F 84% 30.11 in 2.5 mi East 13.8 mph - N/A   Overcast
10:10 AM 36.5 °F 28.2 °F 32.0 °F 84% 30.13 in 3.0 mi East 12.7 mph - N/A   Overcast
10:30 AM 36.5 °F 28.7 °F 31.8 °F 83% 30.14 in 3.0 mi East 11.5 mph - N/A   Haze
10:50 AM 36.9 °F 30.1 °F 32.0 °F 83% 30.13 in 4.0 mi East 9.2 mph - N/A   Haze
11:10 AM 37.0 °F 30.4 °F 32.0 °F 82% 30.12 in 3.0 mi East 9.2 mph - N/A   Haze
11:30 AM 37.4 °F 31.4 °F 32.0 °F 81% 30.13 in 4.0 mi East 8.1 mph - N/A   Haze
11:49 AM 37.4 °F 31.4 °F 32.0 °F 81% 30.13 in 4.0 mi East 8.1 mph - N/A   Haze
12:10 PM 37.4 °F 32.1 °F 32.0 °F 81% 30.12 in 3.0 mi ENE 6.9 mph - N/A   Haze
12:30 PM 37.4 °F 30.8 °F 32.0 °F 81% 30.11 in 3.0 mi East 9.2 mph - N/A   Haze
12:49 PM 37.4 °F 31.4 °F 32.0 °F 81% 30.11 in 3.0 mi East 8.1 mph - N/A   Haze
1:10 PM 37.4 °F 34.9 °F 32.0 °F 81% 30.12 in 3.0 mi ENE 3.5 mph - N/A   Haze
1:30 PM 37.4 °F 32.8 °F 32.0 °F 81% 30.11 in 3.0 mi NE 5.8 mph - N/A   Haze
1:50 PM 37.4 °F 32.1 °F 32.0 °F 81% 30.11 in 3.0 mi ENE 6.9 mph - N/A   Haze
2:10 PM 37.0 °F 31.0 °F 32.0 °F 82% 30.11 in 3.0 mi East 8.1 mph - N/A   Haze
2:30 PM 37.0 °F 31.6 °F 32.0 °F 82% 30.10 in 3.0 mi ENE 6.9 mph - N/A   Haze
2:50 PM 37.4 °F 33.8 °F 32.0 °F 81% 30.12 in 4.0 mi East 4.6 mph - N/A   Haze
3:10 PM 37.0 °F 29.8 °F 32.0 °F 82% 30.11 in 3.0 mi East 10.4 mph - N/A   Haze
3:30 PM 37.0 °F 31.0 °F 32.0 °F 82% 30.12 in 3.0 mi ESE 8.1 mph - N/A   Haze
3:50 PM 36.9 °F 31.4 °F 32.0 °F 83% 30.12 in 2.5 mi East 6.9 mph - N/A   Haze
4:10 PM 36.7 °F 32.0 °F 32.0 °F 83% 30.13 in 2.5 mi East 5.8 mph - N/A   Haze
4:30 PM 36.5 °F 29.7 °F 32.0 °F 84% 30.13 in 3.0 mi ESE 9.2 mph - N/A   Haze
4:50 PM 36.5 °F 29.7 °F 32.0 °F 84% 30.12 in 4.0 mi ESE 9.2 mph - N/A   Haze
5:09 PM 36.5 °F 31.0 °F 32.0 °F 84% 30.11 in 4.0 mi East 6.9 mph - N/A   Haze
5:30 PM 36.5 °F 29.7 °F 32.0 °F 84% 30.13 in 3.0 mi ESE 9.2 mph - N/A   Haze
5:50 PM 36.5 °F 29.7 °F 32.0 °F 84% 30.12 in 3.0 mi ESE 9.2 mph - N/A   Haze
6:09 PM 36.5 °F 31.0 °F 32.0 °F 84% 30.14 in 3.0 mi ESE 6.9 mph - N/A   Haze
6:30 PM 36.5 °F 29.7 °F 32.0 °F 84% 30.13 in 2.5 mi SE 9.2 mph - N/A   Haze
6:50 PM 36.5 °F 31.0 °F 32.2 °F 84% 30.13 in 2.0 mi ESE 6.9 mph - N/A   Haze
7:10 PM 36.7 °F 30.5 °F 32.5 °F 85% 30.12 in 2.0 mi SE 8.1 mph - N/A   Overcast
7:30 PM 36.9 °F 30.7 °F 32.9 °F 86% 30.11 in 2.0 mi SE 8.1 mph - N/A   Overcast
7:50 PM 37.0 °F 28.9 °F 33.1 °F 86% 30.10 in 2.0 mi SE 12.7 mph - N/A   Overcast
8:10 PM 37.4 °F 30.3 °F 33.3 °F 85% 30.10 in 2.0 mi SSE 10.4 mph - N/A   Overcast
8:30 PM 37.4 °F 29.3 °F 33.4 °F 86% 30.10 in 2.0 mi SSE 12.7 mph 17.3 mph N/A   Overcast
8:50 PM 37.4 °F 29.8 °F 33.8 °F 87% 30.11 in 2.0 mi SSE 11.5 mph - N/A   Overcast
9:10 PM 37.4 °F 31.4 °F 33.8 °F 87% 30.08 in 1.8 mi SSE 8.1 mph - N/A   Overcast
9:30 PM 37.8 °F 33.3 °F 34.0 °F 86% 30.09 in 1.8 mi SE 5.8 mph - N/A   Overcast
9:50 PM 37.9 °F 33.5 °F 34.2 °F 86% 30.08 in 1.8 mi SE 5.8 mph - N/A   Overcast
10:10 PM 38.3 °F 32.5 °F 34.5 °F 86% 30.08 in 1.8 mi ESE 8.1 mph - N/A   Overcast
10:30 PM 38.5 °F 33.4 °F 34.7 °F 86% 30.09 in 2.0 mi SE 6.9 mph - N/A   Overcast
10:50 PM 38.8 °F 32.6 °F 34.9 °F 86% 30.09 in 2.0 mi SE 9.2 mph - N/A   Overcast
11:10 PM 39.2 °F 33.0 °F 35.1 °F 85% 30.10 in 2.5 mi SE 9.2 mph - N/A   Overcast
11:30 PM 39.2 °F 32.5 °F 34.9 °F 84% 30.09 in 2.5 mi SE 10.4 mph - N/A   Overcast
11:50 PM 39.2 °F 31.6 °F 34.7 °F 84% 30.07 in 2.5 mi SE 12.7 mph - N/A   Overcast